Location: Mascot Post Office (historical)
(40.2645°N, 99.5462°W)
Time: 01:46:44
(UTC+00:00)

MetOp-A - Visible Passes

Search period start: 23 October 2020 00:00
Search period end: 02 November 2020 00:00
Orbit: 820 x 821 km, 98.5° (Epoch: 22 October)

Date Brightness Start Highest point End Pass type
(mag) Time Alt. Az. Time Alt. Az. Time Alt. Az.
23 Oct 6.0 01:10:13 13° NE 01:10:13 13° NE 01:11:31 10° NNE visible
23 Oct 6.0 02:51:35 22° NNW 02:51:35 22° NNW 02:53:26 10° NNW visible
24 Oct 5.9 02:30:46 23° N 02:30:46 23° N 02:32:43 10° N visible
25 Oct 5.8 02:09:57 21° N 02:09:57 21° N 02:11:51 10° N visible
26 Oct 5.9 01:49:08 18° NNE 01:49:08 18° NNE 01:50:48 10° N visible
26 Oct 6.9 03:30:30 12° NW 03:30:30 12° NW 03:31:00 10° NNW visible
27 Oct 6.0 01:28:19 15° NNE 01:28:19 15° NNE 01:29:34 10° NNE visible
27 Oct 6.6 03:09:41 15° NNW 03:09:41 15° NNW 03:10:36 10° NNW visible
28 Oct 6.2 01:07:29 11° NNE 01:07:29 11° NNE 01:07:53 10° NNE visible
28 Oct 6.4 02:48:52 17° NNW 02:48:52 17° NNW 02:50:00 10° NNW visible
29 Oct 6.2 02:28:03 17° N 02:28:03 17° N 02:29:15 10° N visible
30 Oct 6.1 02:07:13 16° N 02:07:13 16° N 02:08:23 10° N visible
31 Oct 6.2 01:46:23 14° NNE 01:46:23 14° NNE 01:47:19 10° N visible
01 Nov 6.2 01:25:33 12° NNE 01:25:33 12° NNE 01:26:01 10° NNE visible
01 Nov 6.8 03:06:56 11° NNW 03:06:56 11° NNW 03:07:11 10° NNW visible
